Retour au catalogue

FENGYUN 1C DEB

LostPO
NORAD 47026·DEBRIS·🇨🇳 China

Lancé May 10, 1999 depuis Taiyuan Satellite Launch Center

Loading…

Prochains Passages (prochaines 24 heures)

TLE

PériméSource: Space-Track

Époque: Jul 15, 2024, 23:40 UTC

1 47026U 99025FBC 24197.98627178  .00005019  00000-0  29627-2 0  9998
2 47026  98.1791 269.3406 0078241 131.7472 229.0423 14.06656095698178

Suivez FENGYUN 1C DEB en temps réel avec AllMySat

Download on the App Store